Torna al catalogo

SKYCRAFT 4E

AttivoScienzaSSO
NORAD 65227·PAYLOAD·🇦🇺 Australia

Lanciato Jul 23, 2025 da Vandenberg Space Force Base

Loading…

Prossimi Passaggi (prossime 24 ore)

TLE

AggiornatoSource: Space-Track

Epoca: Sep 14, 2026, 14:30 UTC

1 65227U 25154L   26257.60436157  .00005087  00000-0  42584-3 0  9999
2 65227  97.6620 320.8441 0003903 350.6441   9.4708 14.98880487 60724

Traccia SKYCRAFT 4E in tempo reale con AllMySat

Download on the App Store